Logan Martin Lake Weather Center

Moon Phase Calendar



Logan Martin Lake Water Level
Online Cameras

 


      

Current Conditions in Riverside
7/16/2024 4:26:35 AM

72°F
Feels Like 73
Mist
Humidity
99%
Pressure
30"
Wind
2.3 mph (SE)
Dew Point
71°F
UV Index
0/10 (Low)
Visibility
5 mi

Hourly Forecast

Date & Time Tue, Jul 16
4:00 AM
Tue, Jul 16
5:00 AM
Tue, Jul 16
6:00 AM
Tue, Jul 16
7:00 AM
Tue, Jul 16
8:00 AM
Tue, Jul 16
9:00 AM
Tue, Jul 16
10:00 AM
Tue, Jul 16
11:00 AM
Tue, Jul 16
12:00 PM
Tue, Jul 16
1:00 PM
Tue, Jul 16
2:00 PM
Tue, Jul 16
3:00 PM
Tue, Jul 16
4:00 PM
Tue, Jul 16
5:00 PM
Tue, Jul 16
6:00 PM
Tue, Jul 16
7:00 PM
Tue, Jul 16
8:00 PM
Tue, Jul 16
9:00 PM
Tue, Jul 16
10:00 PM
Tue, Jul 16
11:00 PM
Wed, Jul 17
12:00 AM
Wed, Jul 17
1:00 AM
Wed, Jul 17
2:00 AM
Wed, Jul 17
3:00 AM
Wed, Jul 17
4:00 AM
Wed, Jul 17
5:00 AM
Wed, Jul 17
6:00 AM
Wed, Jul 17
7:00 AM
Wed, Jul 17
8:00 AM
Wed, Jul 17
9:00 AM
Wed, Jul 17
10:00 AM
Wed, Jul 17
11:00 AM
Wed, Jul 17
12:00 PM
Wed, Jul 17
1:00 PM
Wed, Jul 17
2:00 PM
Wed, Jul 17
3:00 PM
Wed, Jul 17
4:00 PM
Wed, Jul 17
5:00 PM
Wed, Jul 17
6:00 PM
Wed, Jul 17
7:00 PM
Wed, Jul 17
8:00 PM
Wed, Jul 17
9:00 PM
Wed, Jul 17
10:00 PM
Wed, Jul 17
11:00 PM
Thu, Jul 18
12:00 AM
Thu, Jul 18
1:00 AM
Thu, Jul 18
2:00 AM
Thu, Jul 18
3:00 AM
Condition
Rain

Clouds

Clouds

Clouds

Clouds

Clouds

Clouds

Clouds

Clouds

Clouds

Clouds

Clouds

Clouds

Clouds

Clouds

Clouds

Clouds

Clouds

Clouds

Clouds

Clouds

Clouds

Clouds

Clouds

Clouds

Clouds

Rain

Rain

Rain

Clouds

Clouds

Clouds

Clouds

Clouds

Clouds

Clouds

Clouds

Rain

Rain

Rain

Clouds

Clouds

Clouds

Clouds

Rain

Rain

Rain

Rain
Temperature 72°F71°F71°F72°F76°F82°F88°F91°F94°F96°F97°F97°F95°F95°F95°F89°F84°F82°F79°F77°F75°F74°F73°F73°F73°F72°F71°F72°F75°F79°F87°F92°F94°F96°F91°F88°F94°F81°F71°F70°F69°F69°F70°F70°F69°F69°F70°F70°F
Feels Like 73°F73°F72°F74°F77°F86°F92°F95°F97°F98°F99°F99°F97°F97°F98°F92°F86°F84°F79°F77°F76°F75°F74°F74°F74°F73°F72°F73°F76°F79°F92°F97°F99°F101°F96°F93°F98°F85°F72°F71°F70°F70°F71°F70°F70°F70°F71°F71°F
Cloudiness 75%68%66%66%95%100%83%83%86%84%73%80%87%90%92%92%100%62%43%44%50%59%14%23%18%14%22%33%38%38%46%37%30%29%100%94%63%65%72%77%100%100%99%74%80%75%100%80%
Visibility 6 mi6 mi6 mi6 mi6 mi6 mi6 mi6 mi6 mi6 mi6 mi6 mi6 mi6 mi6 mi6 mi6 mi6 mi6 mi6 mi6 mi6 mi6 mi6 mi6 mi6 mi6 mi6 mi6 mi6 mi6 mi6 mi6 mi6 mi6 mi6 mi6 mi6 mi2 mi6 mi6 mi6 mi6 mi6 mi6 mi6 mi6 mi6 mi
Precipitation 60%59%54%51%0%0%0%0%0%0%0%0%0%0%0%0%0%0%0%0%0%0%0%0%0%0%20%97%100%73%81%69%57%47%0%0%17%76%100%100%0%0%0%0%35%89%71%77%
Humidity 99%97%96%93%83%67%55%47%41%36%33%32%36%36%37%50%53%59%65%71%72%75%79%81%83%88%91%95%91%77%58%48%42%38%48%56%43%72%93%88%89%89%88%87%92%95%96%97%
Dew Point 71°F71°F70°F70°F70°F70°F69°F68°F66°F65°F64°F63°F64°F64°F65°F68°F65°F66°F66°F66°F66°F66°F66°F67°F67°F68°F68°F70°F72°F72°F70°F69°F68°F67°F69°F70°F68°F71°F68°F66°F66°F66°F66°F66°F67°F68°F68°F69°F
Pressure 30"30"30"30.03"30.03"30.03"30.03"30"30"29.97"29.94"29.94"29.91"29.91"29.91"29.91"29.94"29.94"29.97"29.97"29.97"29.97"29.97"29.97"29.97"30"30"30.03"30.03"30.03"30.03"30"30"29.97"29.97"29.94"29.97"29.97"30"29.94"29.94"29.97"29.94"29.97"30"30"29.97"29.97"
Wind Speed 3.8 mph3.2 mph4 mph2.8 mph3.1 mph3.1 mph4 mph4.6 mph5.1 mph5.7 mph6.4 mph7.4 mph6 mph4.7 mph4.4 mph2.3 mph1.8 mph3.1 mph4.9 mph4.6 mph3.7 mph4.2 mph4.6 mph3.6 mph4.2 mph5 mph3.8 mph3 mph4.4 mph5.5 mph6 mph7.1 mph7.6 mph7.5 mph5.7 mph2.6 mph12.2 mph10 mph14.9 mph3.6 mph5.1 mph4 mph2.8 mph1 mph5.6 mph4.2 mph5.3 mph4.5 mph
Wind
Direction
242°
WSW
242°
WSW
205°
SSW
196°
SSW
232°
SW
248°
WSW
262°
W
262°
W
261°
W
260°
W
263°
W
268°
W
270°
W
275°
W
277°
W
275°
W
236°
SW
245°
WSW
178°
S
209°
SSW
211°
SSW
205°
SSW
202°
SSW
216°
SW
214°
SW
204°
SSW
199°
SSW
193°
SSW
197°
SSW
224°
SW
228°
SW
243°
WSW
252°
WSW
257°
WSW
270°
W
307°
NW
301°
WNW
307°
NW
265°
W
125°
SE
221°
SW
183°
S
124°
SE
151°
SSE
205°
SSW
191°
S
191°
S
187°
S

Daily Forecast

Date High Low Precip. Humidity
Today
Jul 16

Rain
97 °F
71 °F
60%
41%
Wednesday
Jul 17

Rain
96 °F
69 °F
100%
42%
Thursday
Jul 18

Rain
95 °F
69 °F
100%
46%
Friday
Jul 19

Rain
84 °F
71 °F
100%
59%
Saturday
Jul 20

Rain
89 °F
69 °F
100%
60%
Sunday
Jul 21

Rain
91 °F
68 °F
100%
49%
Monday
Jul 22

Rain
91 °F
71 °F
100%
46%
Tuesday
Jul 23

Rain
88 °F
70 °F
100%
59%
Wednesday
Jul 24

Clouds
90 °F
72 °F
31%
42%
Thursday
Jul 25

Rain
93 °F
73 °F
29%
40%
Friday
Jul 26

Rain
84 °F
71 °F
100%
85%
Saturday
Jul 27

Rain
93 °F
70 °F
75%
43%
Sunday
Jul 28

Rain
93 °F
71 °F
100%
44%
Monday
Jul 29

Rain
91 °F
72 °F
100%
53%
Tuesday
Jul 30

Rain
95 °F
74 °F
20%
41%
Wednesday
Jul 31

Rain
97 °F
74 °F
20%
38%

Temperature 8-14 Day Outlook



Precipitation 8-14 Day Outlook




Quick Links
Logan Martin Lake News
Logan Martin Lake Photos
Logan Martin Lake Videos




About Us
Contact Us
Site Map
Search Site
Advertise With Us
   
www.LoganMartin.info
THE LOGAN MARTIN LAKE WEBSITE

Copyright 2024, Lakes Online
Privacy    |    Legal